www.pogodaiklimat.ru

Погода и климат >> Архив погоды >> Россия >> Бурятия >> Иволгинск


ПОГОДА в Иволгинске

  • Прогноз погоды в Иволгинске
  • Монитор погоды в Иволгинске

АРХИВ ПОГОДЫ в Иволгинске

Время (UTC), дата Ветер
(напр.,м/с)
 
Видим.   Явления Облачность Т
(С)
Тd
(С)
f
(%)
Тe
(С)
Тes
(С)
Комфортность P
(гПа)
Po
(гПа)
Тmin
(С)
Tmax
(С)
R
(мм)
R24
(мм)
S
(см)
00 14.08 ЮЗ 1 1000 м туман 10/10 300 м
[St]
+8.3 +8.3 100 +7 +7 1011.0 945.0 +6.4
03 14.08 СВ 1 4000 м туман местами 10/8 600 м
[Cb cap Ci ing]
+12.9 +10.8 87 +13 +15 1009.3 944.5
06 14.08 С 2 50 км {туман} 10/6 600 м
[Cb cap Ac As Ci fib]
+18.9 +12.2 65 +20 +23 1006.5 943.2
09 14.08 СЗ 2 50 км в посл. час ливневой дождь {гроза} 10/8 600 м
[Cb cap Ac As]
+16.6 +11.7 73 +17 +17 1007.8 943.9
12 14.08 ЮЗ 1 50 км {ливн. осадки} 10/6 600 м
[Cb cap Ac As]
+14.8 +8.9 68 +15 +15 1009.8 945.3 +19.3 0.0
18 14.08 СЗ 2 н/о 8/3 600 м
[Cb cap Ac As Cc]
+13.4 +8.6 73 +13 +13 1012.8 947.8
00 15.08 З 1 50 км 4/4 600 м
[Sc diur, vesp]
+15.0 +9.0 67 +16 +18 1014.5 949.8 +10.2 0.0
06 15.08 СЗ 3 50 км 4/4 600 м
[Cb cap]
+18.7 +8.7 52 +19 +26 1012.7 948.8
12 15.08 ЮЗ 1 50 км 8/3 600 м
[Sc diur, vesp Ci fib]
+15.2 +9.3 68 +16 +16 1012.6 948.0 +20.0
15 15.08 ЮВ 1 н/о 10/6 600 м
[Sc Ac trans Ci fib]
+12.7 +9.1 79 +13 +13 1014.1 948.9
18 15.08 ЮЗ 1 н/о 8/0
[As trans Ci]
+10.3 +8.6 89 +10 +10 1014.3 948.5
21 15.08 штиль 0 50 км 6/0
[Cc]
+8.1 +7.3 95 +7 +7 1014.9 948.6
00 16.08 СВ 1 50 км 3/0
[Ci fib]
+11.6 +9.3 86 +11 +14 1014.5 949.0 +7.6
03 16.08 СВ 2 50 км 3/3 600 м
[Sc]
+18.5 +11.2 62 +19 +27 1011.1 947.4
06 16.08 В 2 50 км 5/5 600 м
[Cu med, cong]
+22.2 +8.0 40 +23 +29 комфорт 1009.8 946.8
09 16.08 СЗ 1 50 км 9/9 600 м
[Cu hum]
+21.8 +9.7 46 +23 +24 комфорт 1007.9 945.1
12 16.08 С 1 50 км 1/0
[Ci fib]
+19.5 +10.4 56 +22 +22 комфорт 1009.1 945.7 +23.5
15 16.08 ЮЗ 1 н/о 6/0
[Ci fib]
+12.8 +10.1 84 +13 +13 1010.1 945.1
18 16.08 ЮЗ 1 н/о 10/0
[Ci fib]
+10.5 +8.9 90 +10 +10 1010.0 944.6
21 16.08 В 1 н/о 10/0
[Cc]
+8.5 +7.7 95 +8 +8 1010.1 944.2
00 17.08 З 1 10 км дым 10/8 600 м
[Sc Cs]
+11.0 +9.6 91 +11 +11 1009.3 944.1 +7.8
03 17.08 ЮЗ 1 10 км дым 10/10 600 м
[Cb cap]
+13.0 +9.3 78 +13 +13 1008.1 943.4
06 17.08 ЮВ 1 4000 м слаб. дождь 10/10 600 м
[Sc]
+13.7 +11.1 84 +14 +14 1007.4 942.9
09 17.08 штиль 0 4000 м слаб. дождь 10/10 600 м
[Sc As op]
+14.4 +12.2 87 +14 +14 1006.5 942.2
12 17.08 штиль 0 50 км {дождь} 10/10 600 м
[Sc]
+14.4 +13.0 91 +14 +14 1006.7 942.4 +14.6 2
15 17.08 штиль 0 н/о 10/10 600 м
[Sc]
+13.8 +12.9 94 +13 +13 1001.4 940.1
18 17.08 СЗ 2 н/о {ливн. осадки} 10/10 600 м
[Cb cap]
+14.0 +10.3 78 +14 +14 1009.4 944.8
21 17.08 СЗ 1 н/о 10/10 600 м
[Cb cap]
+14.1 +10.5 79 +14 +14 1009.2 944.6
00 18.08 штиль 0 20 км 10/9 600 м
[Sc Ci fib]
+15.6 +10.8 73 +15 +16 1009.9 945.6 +13.5 0.0
03 18.08 С 3 50 км 8/8 600 м
[Sc diur, vesp]
+17.6 +10.4 63 +18 +19 1011.5 947.5
06 18.08 С 2 20 км дым 10/8 600 м
[Sc diur, vesp Ci fib]
+18.7 +10.3 58 +20 +22 1009.9 946.2
09 18.08 СЗ 3 10 км дым 9/0
[Ci fib]
+19.6 +10.0 54 +21 +24 комфорт 1009.7 946.3
12 18.08 СЗ 1 20 км дым 4/0
[Cc]
+16.8 +10.2 65 +18 +18 1010.3 946.3 +19.7
15 18.08 ЮЗ 1 н/о 4/0
[Ci fib]
+11.8 +9.5 86 +12 +12 1011.2 945.9
21 18.08 ЮЗ 1 н/о 10/0
[Cc]
+8.3 +7.6 95 +7 +7 1011.4 945.5
00 19.08 С 1 10 км туман местами 10/0
[Cs]
+9.6 +8.6 93 +9 +11 1010.8 945.1 +8.0
12 19.08 СЗ 4 4000 м мгла {туман} 10/4 600 м
[Cb cap Ac trans Cc]
+16.6 +8.7 60 +16 +16 1007.6 943.6 +20.5
15 19.08 Ю 2
{10}
н/о {туман} 8/0
[Cc]
+12.2 +8.8 80 +11 +11 1010.7 945.6
00 20.08 СЗ 5-10
{10}
20 км дым 9/3 600 м
[Sc Ac lent Cc]
+15.5 +9.4 67 +14 +15 1012.5 948.0 +11.1
03 20.08 СЗ 5-10
{12}
10 км дым {метель} 9/5 600 м
[Sc Cc]
+18.1 +9.0 55 +18 +20 1012.6 948.6
06 20.08 СЗ 4-11
{12}
10 км дым {метель} 8/8 600 м
[Cu Sc]
+19.0 +8.6 51 +20 +21 1011.5 947.8
09 20.08 З 4
{11}
10 км дым {метель} 8/8 600 м
[Cu hum]
+18.8 +8.6 51 +19 +20 1012.0 948.2
12 20.08 СЗ 1 10 км дым {метель} 9/9 600 м
[Cb cap]
+16.2 +8.8 62 +17 +17 1014.4 949.9 +19.6

 

Местоположение метеостанции Иволгинск (Бурятия, Россия): широта 51.75 долгота 107.20 высота над уровнем моря 562 м.

В архиве по умолчанию представлена погода в Иволгинске за последнюю неделю. Архивные данные за месяц целиком и за предыдущие месяцы, начиная с января 2011 года, Вы можете получить, выбрав интересующий диапазон дат из раскрывающегося списка и нажав кнопку "Ввод!".


*Определитесь, кто Вы:
робот инопланетянин человек

Внимание! Время в таблицах - всемирное. Для получения местного времени необходимо прибавить поправку, которая равна 8 ч.

Смотрите также архив погоды в соседних городах и на ближайших метеорологических станциях:

Погода в Улан-Удэ (Бурятия, Россия) (29 км)
Погода в Улан-Удэ АМС (Бурятия, Россия) (39 км)
Погода в Кабанске (Бурятия, Россия) (53 км)
Погода в Новоселенгинске (Бурятия, Россия) (83 км)
Погода в Сухой (Бурятия, Россия) (89 км)
Погода в Мухоршибири (Бурятия, Россия) (90 км)
Погода в Новой Курбе (Бурятия, Россия) (96 км)
Погода в Бабушкине (Бурятия, Россия) (97 км)
Погода в Петровском Заводе (Забайкальский край, Россия) (121 км)
Погода в Большом Голоустном (Иркутская область, Россия) (127 км)

Пояснения к столбцам:

Ветер - указаны скорость ветра в м/с - средняя за 10 мин, порывы в срок и между сроками (в фигурных скобках) и направление, откуда дует ветер: С - северный, СВ - северо-восточный, В - восточный, ЮВ - юго-восточный, Ю - южный, ЮЗ - юго-западный, З - западный, СЗ - северо-западный.
Видимость - горизонтальная дальность видимости в метрах или километрах. При видимости от 1 до 10 км при отсутствии осадков обычно наблюдается дымка, при ухудшении видимости до 1 км и менее - туман. В сухую погоду видимость может ухудшаться дымом, пылью или мглою.
Явления - указаны атмосферные явления, наблюдавшиеся в срок или в последний час перед сроком; фигурными скобками обозначены явления, наблюдавшиеся между сроками (за 1-3 часа до срока); квадратными скобками обозначены град или гололедные отложения с указанием их диаметра в мм.
Облачность - указаны через наклонную черту общая и нижняя облачность в баллах и высота нижней границы облаков в метрах; квадратными скобками обозначены формы облаков: Ci - перистые, Cs - перисто-слоистые, Cc - перисто-кучевые, Ac - высококучевые, As - высокослоистые, Sc - слоисто-кучевые, Ns - слоисто-дождевые, Cu - кучевые, Cb - кучево-дождевые. Подробнее классификацию облаков см. в Атласе облаков (PDF).
T - Температура воздуха - температура, измеренная на высоте 2 м над землей.
Td - Температура точки росы - температура, при понижении до которой содержащийся в воздухе водяной пар достигнет насыщения.
f - Относительная влажность воздуха - влажноcть воздуха, измеренная на высоте 2 м над землей.
Te - Эффективная температура - температура, которую ощущает одетый по сезону человек в тени. Характеристика душности погоды. При расчете учитывается влияние влажности воздуха и скорости ветра на теплоощущения человека.
Tes - Эффективная температура на солнце - температура, которую ощущает человек, с поправкой на солнечный нагрев. Характеристика знойности погоды. Зависит от высоты солнца над горизонтом, облачности и скорости ветра. Ночью, в пасмурную погоду, а также при ветре 12 м/с и более поправка равна нулю.
P - Атмосферное давление - приведенное к уровню моря атмосферное давление.
Po - Атмосферное давление - измеренное на уровне метеостанции атмосферное давление.
Tmin - Минимальная температура - минимум температуры воздуха на высоте 2 м над землей.
Tmax - Максимальная температура - максимум температуры воздуха на высоте 2 м над землей.
R - Количество осадков - Количество выпавших осадков за период времени, мм. При наведении курсора мыши на число - период времени, за который выпало указанное количество осадков.
R24 - Количество осадков - Количество выпавших осадков за 24 часа, мм.
S - Снежный покров - Высота снежного покрова, см. При наведении курсора мыши на число - состояние снежного покрова и степень покрытия местности в баллах.